Moses Lake, WA
on Sunday, December 16, 2012

Sunday
Previous Day Next Day
Daily Summary
 ActualAverageRecord
Temperature
Mean Temperature °F 28°F  
Max Temperature 40°F 34°F 57°F (1999)
Min Temperature 15°F 22°F 0°F (2008)
Degree Days
Heating Degree Days 37 37  
Month to date heating degree days 444 566  
Since 1 July heating degree days 1712 2027  
Cooling Degree Days 0 0  
Month to date cooling degree days 0 0  
Year to date cooling degree days 719 615  
Moisture
Dew Point 26°F   
Average Humidity 86    
Maximum Humidity 92    
Minimum Humidity 80    
Precipitation
Precipitation 0.26 in 0.05 in 0.26 in (2012)
Month to date precipitation 1.26 0.61  
Year to date precipitation 9.00 8.28  
Wind
Wind Speed 7 mph   
Max Wind Speed 22 mph   
Max Gust Speed 31 mph   
Visibility 6 miles   
Events Fog , Rain , Snow   

Key: T is trace of precipitation, MM is missing value
Source: NWS Daily Summary
Time(PST)TemperatureDew PointHumidity Pressure Visibility Wind DirectionWind SpeedGust SpeedPrecipitationEvents Conditions
12:11 AM 30.2°F 28.4°F 93% 29.63 in 0.8 miles South 4.6 mph - N/A   Mist
12:36 AM 30.2°F 26.6°F 86% 29.64 in 0.2 miles SSW 8.1 mph - N/A Fog Light Freezing Fog
12:44 AM 30.2°F 26.6°F 86% 29.64 in 0.5 miles SSW 8.1 mph - N/A Fog Light Freezing Fog
12:52 AM 28.9°F 27.0°F 92% 29.67 in 0.5 miles SSW 10.4 mph - N/A Fog Light Freezing Fog
1:07 AM 28.4°F 26.6°F 93% 29.64 in 2.0 miles South 9.2 mph - N/A   Overcast
1:15 AM 28.4°F 26.6°F 93% 29.64 in 5.0 miles SSW 10.4 mph - N/A   Mostly Cloudy
1:24 AM 28.4°F 26.6°F 93% 29.64 in 8.0 miles SSW 10.4 mph - N/A   Scattered Clouds
1:52 AM 27.0°F 24.1°F 89% 29.69 in 9.0 miles South 4.6 mph - N/A   Clear
2:13 AM 23.0°F 19.4°F 86% 29.67 in 2.5 miles ENE 4.6 mph - N/A   Partly Cloudy
2:16 AM 23.0°F 19.4°F 86% 29.67 in 1.0 miles Variable 3.5 mph - N/A   Mist
2:22 AM 21.2°F 19.4°F 93% 29.66 in 0.2 miles SE 4.6 mph - N/A Fog Light Freezing Fog
2:52 AM 19.4°F 15.8°F 86% 29.68 in 0.2 miles Calm Calm - N/A Fog Light Freezing Fog
3:52 AM 18.0°F 15.1°F 88% 29.74 in 0.2 miles Calm Calm - N/A Fog Light Freezing Fog
4:10 AM 15.8°F 12.2°F 86% 29.70 in 0.2 miles Calm Calm - N/A Fog Light Freezing Fog
4:22 AM 15.8°F 12.2°F 86% 29.70 in 0.2 miles ESE 3.5 mph - N/A Fog Light Freezing Fog
4:52 AM 18.0°F 16.0°F 92% 29.75 in 0.2 miles Calm Calm - N/A Fog Light Freezing Fog
5:52 AM 17.1°F 12.9°F 84% 29.76 in 0.5 miles Calm Calm - N/A Fog Light Freezing Fog
5:59 AM 17.6°F 14.0°F 86% 29.71 in 1.0 miles Calm Calm - N/A   Mist
6:01 AM 17.6°F 14.0°F 86% 29.71 in 1.2 miles SE 3.5 mph - N/A   Partly Cloudy
6:07 AM 19.4°F 15.8°F 86% 29.71 in 3.0 miles SE 4.6 mph - N/A   Scattered Clouds
6:52 AM 28.9°F 25.0°F 85% 29.76 in 10.0 miles South 8.1 mph - N/A   Overcast
7:52 AM 28.0°F 24.1°F 85% 29.76 in 10.0 miles WSW 3.5 mph - N/A   Overcast
8:12 AM 24.8°F 21.2°F 86% 29.73 in 8.0 miles NNW 4.6 mph - N/A   Overcast
8:52 AM 26.1°F 21.9°F 84% 29.78 in 8.0 miles Calm Calm - N/A   Unknown
9:52 AM 27.0°F 24.1°F 89% 29.78 in 10.0 miles North 3.5 mph - N/A   Unknown
10:52 AM 28.9°F 26.1°F 89% 29.76 in 10.0 miles North 4.6 mph - N/A   Overcast
11:52 AM 30.0°F 28.0°F 92% 29.74 in 10.0 miles Calm Calm - N/A   Scattered Clouds
12:52 PM 30.0°F 27.0°F 88% 29.71 in 7.0 miles North 3.5 mph - N/A   Partly Cloudy
1:52 PM 30.0°F 28.0°F 92% 29.67 in 7.0 miles Calm Calm - N/A   Partly Cloudy
2:52 PM 33.1°F 28.9°F 85% 29.65 in 10.0 miles SSE 8.1 mph - N/A   Overcast
3:52 PM 35.1°F 30.0°F 82% 29.60 in 9.0 miles South 9.2 mph - 0.01 in   Overcast
4:06 PM 35.6°F 30.2°F 81% 29.55 in 8.0 miles South 9.2 mph - 0.00 in   Overcast
4:52 PM 35.1°F 30.9°F 85% 29.55 in 9.0 miles SSE 11.5 mph - 0.03 in Rain Light Rain
5:01 PM 35.6°F 30.2°F 81% 29.50 in 10.0 miles SE 11.5 mph - 0.00 in Rain Light Rain
5:35 PM 35.6°F 30.2°F 81% 29.46 in 10.0 miles SE 12.7 mph - 0.00 in Rain Light Rain
5:52 PM 35.1°F 32.0°F 89% 29.50 in 8.0 miles SE 12.7 mph - 0.02 in Rain Light Rain
6:01 PM 35.6°F 30.2°F 81% 29.44 in 9.0 miles SE 12.7 mph - N/A Rain Light Rain
6:43 PM 35.6°F 32.0°F 87% 29.40 in 10.0 miles SE 13.8 mph - 0.05 in Rain Light Rain
6:52 PM 35.1°F 32.0°F 89% 29.43 in 9.0 miles SE 13.8 mph - 0.06 in Rain Light Rain
7:12 PM 35.6°F 32.0°F 87% 29.37 in 8.0 miles SE 17.3 mph - 0.03 in Rain Light Rain
7:32 PM 33.8°F 30.2°F 87% 29.33 in 3.0 miles ESE 20.7 mph - 0.05 in Snow Light Snow
7:52 PM 34.0°F 30.9°F 89% 29.32 in 10.0 miles ESE 15.0 mph - 0.05 in   Overcast
8:52 PM 34.0°F 30.9°F 89% 29.26 in 7.0 miles ESE 17.3 mph 25.3 mph 0.03 in Snow Light Snow
9:06 PM 33.8°F 30.2°F 87% 29.21 in 10.0 miles ESE 19.6 mph - 0.01 in Rain Light Rain
9:50 PM 35.6°F 33.8°F 93% 29.18 in 9.0 miles SE 15.0 mph - 0.02 in Rain Light Rain
9:52 PM 36.0°F 33.1°F 89% 29.21 in 9.0 miles SE 13.8 mph - 0.02 in Rain Light Rain
10:05 PM 35.6°F 33.8°F 93% 29.17 in 7.0 miles SE 13.8 mph - 0.02 in Rain Rain
10:52 PM 37.0°F 33.1°F 86% 29.16 in 10.0 miles SSE 18.4 mph - 0.04 in   Overcast
11:52 PM 39.0°F 35.1°F 86% 29.16 in 10.0 miles South 9.2 mph - N/A   Mostly Cloudy
Moon Phase
Dec. 16 Dec. 20 Dec. 28 Jan. 04 Jan. 11
Sunrise:07:38 AM (PST) Moon Rise:10:02 AM (PST)12/16
Sunset:04:08 PM (PST) Moon Set:08:42 PM (PST)12/16

Copyright © 2014 The Weather Underground, Inc.